Lid_Strength_Index
9 11 12 11 10 10 9 11 12 11 8 10 11 11 10 8 7 7 7 7 6 5 4 3 2 2 1 1 2 2 3 3 4 4 4 4 5 4 4 3 2 1 1 1
10 12 9 8 9 8 10 12 13 10 8 10 11 12 9 8 8 8 7 7 6 5 4 3 3 2 2 2 2 3 3 3 4 4 5 4 5 4 4 3 3 2 1 1
11 9 7 8 9 9 11 12 12 12 10 9 11 13 12 8 8 7 6 6 6 5 5 4 4 3 2 2 2 3 3 4 5 5 4 4 5 5 4 4 3 3 1 0
10 8 9 9 9 9 12 8 9 11 12 16 11 17 13 11 9 8 7 7 6 5 5 4 4 4 3 2 3 3 3 4 4 5 5 6 6 6 5 5 4 3 2 1
10 10 10 10 9 8 10 8 9 10 13 14 14 15 14 11 11 10 8 7 6 6 5 4 4 3 2 2 3 3 3 5 5 5 5 6 6 6 5 5 4 4 3 2
9 8 8 8 8 7 7 9 10 11 13 17 14 15 15 13 11 10 8 7 7 7 6 5 5 3 3 3 4 3 4 5 5 5 5 5 6 6 6 5 5 4 4 3
10 9 8 7 9 8 9 13 16 17 17 18 14 15 13 10 9 8 8 8 7 7 7 6 6 4 4 4 3 3 4 5 5 5 5 5 5 6 6 6 5 5 4 4
12 12 9 7 10 11 11 12 15 18 19 18 13 17 14 8 7 7 7 8 8 7 7 6 6 4 4 3 3 3 4 5 5 5 5 5 5 5 5 5 5 5 5 4
12 11 7 7 8 9 10 12 11 14 15 18 16 13 10 8 8 8 9 8 9 8 8 7 6 6 4 3 4 4 4 4 4 5 5 5 5 5 5 5 5 5 5 3
9 13 8 7 7 7 10 9 14 14 18 22 17 16 15 12 10 8 9 9 8 7 8 7 6 6 5 4 4 4 4 5 5 5 5 5 5 4 5 5 5 5 5 4
8 10 10 9 10 10 11 13 13 13 14 18 20 17 11 10 9 9 9 9 8 7 8 7 7 7 7 5 5 4 4 5 5 5 5 5 5 4 4 5 5 5 5 5
8 10 13 11 8 7 10 11 12 14 15 15 16 16 9 9 8 8 8 9 8 8 8 7 7 7 7 6 6 5 4 5 4 4 5 5 5 5 5 5 5 5 5 5
8 11 14 12 11 10 10 10 11 12 13 15 17 15 8 8 8 8 9 9 8 8 8 8 7 7 6 5 5 5 5 4 4 4 5 5 5 5 5 5 5 5 5 5
7 11 12 14 12 10 11 9 10 12 14 14 14 14 12 10 9 9 10 9 8 8 7 7 8 7 5 5 5 5 5 5 4 4 5 5 5 5 5 4 4 4 5 5
10 12 11 10 9 9 10 10 9 11 11 13 12 13 11 9 8 8 9 9 9 8 8 7 8 7 6 5 5 4 4 4 4 4 5 5 5 4 4 4 4 4 5 5
9 12 11 11 9 9 10 9 10 9 10 11 11 12 8 7 8 7 8 8 8 8 7 7 7 8 7 5 5 4 4 4 4 5 4 4 4 4 4 4 4 4 5 5
10 11 12 14 10 10 12 10 10 10 9 10 13 10 8 9 8 8 8 8 8 8 7 7 7 7 7 4 4 4 4 4 5 4 4 4 4 4 4 4 4 5 5 5
10 11 11 14 12 16 11 8 8 9 9 8 8 9 8 7 6 8 7 8 7 7 7 7 7 8 7 4 4 4 4 4 4 4 4 4 4 4 4 4 4 5 5 5
9 10 13 14 15 12 10 9 9 10 11 8 9 8 7 7 8 9 8 8 7 7 7 7 7 8 5 5 4 4 5 5 4 4 4 4 4 4 4 4 5 5 5 5
8 9 11 13 16 17 11 8 6 7 13 8 8 8 8 8 10 10 8 7 6 6 6 6 7 5 5 5 5 5 5 6 5 4 4 4 4 4 4 4 4 5 4 4
13 13 14 15 15 12 8 6 5 12 12 9 7 8 8 9 8 7 7 6 6 6 6 4 5 5 5 4 5 5 5 5 4 4 3 3 4 4 4 4 5 5 4 4
13 14 15 14 15 16 7 7 10 8 7 7 8 7 6 7 7 6 6 6 6 5 4 4 5 5 4 4 5 5 5 4 4 4 3 4 4 3 4 4 4 4 4 3
13 11 13 12 12 8 6 6 5 7 7 7 6 5 5 6 6 6 6 5 5 5 4 3 4 5 4 5 4 5 5 4 4 4 4 4 4 4 4 4 4 5 4 3
10 8 10 10 8 8 6 5 5 6 7 6 5 5 6 6 6 6 6 5 5 5 4 4 4 5 4 4 4 4 4 4 5 5 5 5 5 4 4 4 4 5 5 5
9 8 9 9 8 7 7 6 5 5 5 6 4 4 5 5 6 6 7 6 5 5 5 4 4 4 4 4 4 4 4 4 5 5 5 5 5 5 4 5 5 4 4 5
8 9 10 11 7 7 7 6 4 5 5 5 5 5 4 5 5 6 6 6 6 5 5 4 4 4 3 3 3 3 3 4 5 6 5 5 5 4 5 5 5 7 7 7